| time (UTC) | temp F | wind direction | speed MPH | gust MPH | rain 1hr in | rain 24hr in | rain mn in | humidity % | barometer mb |
| 20260504011929 | 75 | 237 | 3.0 | 8.0 | 0.00 | 0.00 | 0.00 | 40 | 1016.2 |
| 20260504011425 | 75 | 177 | 5.0 | 7.0 | 0.00 | 0.00 | 0.00 | 40 | 1016.2 |
| 20260504010920 | 75 | 207 | 7.0 | 11.0 | 0.00 | 0.00 | 0.00 | 40 | 1015.9 |
| 20260504010417 | 76 | 213 | 5.0 | 8.0 | 0.00 | 0.00 | 0.00 | 39 | 1016.2 |
| 20260504005913 | 76 | 193 | 5.0 | 10.0 | 0.00 | 0.00 | 0.00 | 39 | 1016.1 |
| 20260504005410 | 76 | 213 | 5.0 | 10.0 | 0.00 | 0.00 | 0.00 | 39 | 1016.0 |
| 20260504004908 | 77 | 204 | 6.0 | 13.0 | 0.00 | 0.00 | 0.00 | 38 | 1016.2 |
| 20260504004405 | 77 | 230 | 9.0 | 14.0 | 0.00 | 0.00 | 0.00 | 38 | 1016.1 |
| 20260504003902 | 77 | 211 | 6.0 | 9.0 | 0.00 | 0.00 | 0.00 | 38 | 1016.1 |
| 20260504003358 | 78 | 169 | 5.0 | 7.0 | 0.00 | 0.00 | 0.00 | 37 | 1016.1 |
| 20260504002855 | 78 | 207 | 8.0 | 15.0 | 0.00 | 0.00 | 0.00 | 37 | 1016.2 |
| 20260504002352 | 78 | 225 | 7.0 | 11.0 | 0.00 | 0.00 | 0.00 | 36 | 1016.0 |
| 20260504001850 | 79 | 202 | 10.0 | 14.0 | 0.00 | 0.00 | 0.00 | 35 | 1015.9 |
| 20260504001347 | 79 | 236 | 6.0 | 10.0 | 0.00 | 0.00 | 0.00 | 34 | 1016.0 |
| 20260504000843 | 79 | 205 | 6.0 | 13.0 | 0.00 | 0.00 | 0.00 | 34 | 1016.0 |
| 20260504000341 | 79 | 233 | 6.0 | 14.0 | 0.00 | 0.00 | 0.00 | 33 | 1015.9 |
| 20260503235838 | 80 | 159 | 5.0 | 15.0 | 0.00 | 0.00 | 0.00 | 32 | 1016.1 |
| 20260503235336 | 79 | 225 | 7.0 | 11.0 | 0.00 | 0.00 | 0.00 | 31 | 1016.3 |
| 20260503234833 | 80 | 171 | 8.0 | 15.0 | 0.00 | 0.00 | 0.00 | 31 | 1016.1 |
| 20260503234330 | 79 | 198 | 5.0 | 8.0 | 0.00 | 0.00 | 0.00 | 32 | 1016.4 |
| 20260503233828 | 80 | 181 | 7.0 | 15.0 | 0.00 | 0.00 | 0.00 | 32 | 1016.4 |
| 20260503233324 | 80 | 237 | 4.0 | 10.0 | 0.00 | 0.00 | 0.00 | 33 | 1016.3 |
| 20260503232820 | 80 | 222 | 8.0 | 14.0 | 0.00 | 0.00 | 0.00 | 32 | 1016.4 |
| 20260503232318 | 80 | 181 | 10.0 | 17.0 | 0.00 | 0.00 | 0.00 | 33 | 1016.3 |
| 20260503231816 | 80 | 164 | 7.0 | 15.0 | 0.00 | 0.00 | 0.00 | 33 | 1016.2 |
| 20260503231313 | 80 | 251 | 4.0 | 8.0 | 0.00 | 0.00 | 0.00 | 33 | 1016.2 |
| 20260503230808 | 80 | 171 | 7.0 | 11.0 | 0.00 | 0.00 | 0.00 | 34 | 1016.3 |
| 20260503230306 | 80 | 226 | 6.0 | 11.0 | 0.00 | 0.00 | 0.00 | 33 | 1016.4 |
| 20260503225803 | 80 | 222 | 9.0 | 13.0 | 0.00 | 0.00 | 0.00 | 32 | 1016.5 |
| 20260503225258 | 80 | 219 | 5.0 | 15.0 | 0.00 | 0.00 | 0.00 | 32 | 1016.6 |
| 20260503224755 | 81 | 226 | 8.0 | 11.0 | 0.00 | 0.00 | 0.00 | 32 | 1016.6 |
| 20260503224253 | 81 | 123 | 7.0 | 11.0 | 0.00 | 0.00 | 0.00 | 31 | 1016.5 |
| 20260503223750 | 81 | 220 | 3.0 | 13.0 | 0.00 | 0.00 | 0.00 | 33 | 1016.4 |
| 20260503223248 | 81 | 257 | 5.0 | 11.0 | 0.00 | 0.00 | 0.00 | 33 | 1016.7 |
| 20260503222744 | 81 | 177 | 7.0 | 11.0 | 0.00 | 0.00 | 0.00 | 33 | 1016.6 |
| 20260503222242 | 80 | 220 | 9.0 | 14.0 | 0.00 | 0.00 | 0.00 | 32 | 1016.7 |
| 20260503221740 | 81 | 242 | 7.0 | 18.0 | 0.00 | 0.00 | 0.00 | 32 | 1016.9 |
| 20260503221238 | 81 | 205 | 8.0 | 15.0 | 0.00 | 0.00 | 0.00 | 32 | 1016.8 |
| 20260503220734 | 81 | 197 | 7.0 | 15.0 | 0.00 | 0.00 | 0.00 | 32 | 1016.9 |
| 20260503220231 | 81 | 222 | 6.0 | 13.0 | 0.00 | 0.00 | 0.00 | 32 | 1017.0 |
| 20260503215727 | 81 | 228 | 17.0 | 20.0 | 0.00 | 0.00 | 0.00 | 30 | 1016.9 |
| 20260503215225 | 82 | 218 | 8.0 | 10.0 | 0.00 | 0.00 | 0.00 | 30 | 1017.2 |
| 20260503214723 | 81 | 270 | 5.0 | 11.0 | 0.00 | 0.00 | 0.00 | 30 | 1017.1 |
| 20260503214219 | 82 | 199 | 3.0 | 7.0 | 0.00 | 0.00 | 0.00 | 30 | 1016.9 |
| 20260503213717 | 81 | 198 | 9.0 | 11.0 | 0.00 | 0.00 | 0.00 | 30 | 1017.3 |
| 20260503213214 | 80 | 189 | 8.0 | 10.0 | 0.00 | 0.00 | 0.00 | 31 | 1017.0 |
| 20260503212711 | 81 | 216 | 6.0 | 15.0 | 0.00 | 0.00 | 0.00 | 31 | 1017.1 |
| 20260503212209 | 81 | 178 | 8.0 | 11.0 | 0.00 | 0.00 | 0.00 | 31 | 1017.3 |
| 20260503211706 | 81 | 228 | 7.0 | 15.0 | 0.00 | 0.00 | 0.00 | 31 | 1017.3 |
| 20260503211202 | 82 | 200 | 7.0 | 9.0 | 0.00 | 0.00 | 0.00 | 32 | 1017.5 |
| 20260503210658 | 81 | 286 | 6.0 | 11.0 | 0.00 | 0.00 | 0.00 | 32 | 1017.7 |
| 20260503210155 | 81 | 195 | 13.0 | 15.0 | 0.00 | 0.00 | 0.00 | 31 | 1017.9 |
| 20260503205650 | 81 | 216 | 5.0 | 8.0 | 0.00 | 0.00 | 0.00 | 32 | 1017.7 |
| 20260503205147 | 81 | 188 | 7.0 | 11.0 | 0.00 | 0.00 | 0.00 | 33 | 1018.1 |
| 20260503204643 | 82 | 191 | 8.0 | 13.0 | 0.00 | 0.00 | 0.00 | 32 | 1017.9 |
| 20260503204141 | 81 | 219 | 8.0 | 9.0 | 0.00 | 0.00 | 0.00 | 31 | 1018.2 |
| 20260503203638 | 81 | 193 | 9.0 | 11.0 | 0.00 | 0.00 | 0.00 | 31 | 1018.4 |
| 20260503203136 | 82 | 242 | 5.0 | 8.0 | 0.00 | 0.00 | 0.00 | 31 | 1018.5 |
| 20260503202633 | 82 | 149 | 6.0 | 14.0 | 0.00 | 0.00 | 0.00 | 32 | 1018.5 |
| 20260503202131 | 81 | 220 | 10.0 | 13.0 | 0.00 | 0.00 | 0.00 | 31 | 1018.5 |
| 20260503201629 | 80 | 182 | 5.0 | 10.0 | 0.00 | 0.00 | 0.00 | 31 | 1018.6 |
| 20260503201126 | 81 | 251 | 11.0 | 14.0 | 0.00 | 0.00 | 0.00 | 31 | 1018.8 |
| 20260503200622 | 82 | 190 | 9.0 | 13.0 | 0.00 | 0.00 | 0.00 | 31 | 1018.6 |
| 20260503200119 | 80 | 195 | 10.0 | 14.0 | 0.00 | 0.00 | 0.00 | 31 | 1018.6 |
| 20260503195616 | 80 | 236 | 7.0 | 14.0 | 0.00 | 0.00 | 0.00 | 31 | 1018.9 |
| 20260503195112 | 81 | 222 | 4.0 | 9.0 | 0.00 | 0.00 | 0.00 | 29 | 1018.9 |
| 20260503194610 | 80 | 192 | 5.0 | 13.0 | 0.00 | 0.00 | 0.00 | 30 | 1019.1 |
| 20260503194104 | 82 | 190 | 7.0 | 10.0 | 0.00 | 0.00 | 0.00 | 30 | 1019.4 |
| 20260503193601 | 80 | 185 | 7.0 | 13.0 | 0.00 | 0.00 | 0.00 | 32 | 1019.5 |
| 20260503193056 | 80 | 255 | 9.0 | 15.0 | 0.00 | 0.00 | 0.00 | 31 | 1019.4 |
| 20260503192553 | 81 | 226 | 7.0 | 10.0 | 0.00 | 0.00 | 0.00 | 31 | 1019.5 |
| 20260503192049 | 82 | 224 | 7.0 | 14.0 | 0.00 | 0.00 | 0.00 | 32 | 1019.4 |
| 20260503191546 | 81 | 188 | 7.0 | 10.0 | 0.00 | 0.00 | 0.00 | 32 | 1019.6 |
| 20260503191043 | 80 | 252 | 10.0 | 13.0 | 0.00 | 0.00 | 0.00 | 32 | 1019.8 |
| 20260503190539 | 80 | 240 | 9.0 | 11.0 | 0.00 | 0.00 | 0.00 | 32 | 1019.9 |
| 20260503190037 | 80 | 227 | 7.0 | 16.0 | 0.00 | 0.00 | 0.00 | 33 | 1019.7 |
| 20260503185533 | 79 | 233 | 9.0 | 14.0 | 0.00 | 0.00 | 0.00 | 32 | 1019.6 |
| 20260503185033 | 80 | 250 | 5.0 | 15.0 | 0.00 | 0.00 | 0.00 | 34 | 1019.8 |
| 20260503184529 | 80 | 240 | 13.0 | 17.0 | 0.00 | 0.00 | 0.00 | 32 | 1019.9 |
| 20260503184026 | 79 | 291 | 4.0 | 9.0 | 0.00 | 0.00 | 0.00 | 35 | 1020.1 |
| 20260503183522 | 80 | 271 | 5.0 | 9.0 | 0.00 | 0.00 | 0.00 | 37 | 1020.0 |
| 20260503183019 | 79 | 239 | 7.0 | 14.0 | 0.00 | 0.00 | 0.00 | 35 | 1020.1 |
| 20260503182518 | 79 | 220 | 5.0 | 14.0 | 0.00 | 0.00 | 0.00 | 34 | 1020.3 |
| 20260503182015 | 79 | 203 | 10.0 | 14.0 | 0.00 | 0.00 | 0.00 | 34 | 1020.6 |
| 20260503181512 | 78 | 219 | 7.0 | 10.0 | 0.00 | 0.00 | 0.00 | 37 | 1020.5 |
| 20260503181008 | 78 | 266 | 8.0 | 15.0 | 0.00 | 0.00 | 0.00 | 36 | 1020.6 |
| 20260503180506 | 79 | 232 | 12.0 | 16.0 | 0.00 | 0.00 | 0.00 | 36 | 1020.8 |
| 20260503180003 | 79 | 237 | 10.0 | 13.0 | 0.00 | 0.00 | 0.00 | 37 | 1020.7 |
| 20260503175501 | 78 | 225 | 7.0 | 14.0 | 0.00 | 0.00 | 0.00 | 39 | 1021.1 |
| 20260503174957 | 78 | 250 | 6.0 | 10.0 | 0.00 | 0.00 | 0.00 | 37 | 1021.0 |
| 20260503174455 | 79 | 234 | 7.0 | 17.0 | 0.00 | 0.00 | 0.00 | 38 | 1021.1 |
| 20260503173950 | 78 | 198 | 6.0 | 11.0 | 0.00 | 0.00 | 0.00 | 40 | 1021.0 |
| 20260503173446 | 78 | 240 | 10.0 | 11.0 | 0.00 | 0.00 | 0.00 | 41 | 1021.3 |
| 20260503172943 | 77 | 150 | 5.0 | 10.0 | 0.00 | 0.00 | 0.00 | 41 | 1021.3 |
| 20260503172440 | 77 | 259 | 9.0 | 11.0 | 0.00 | 0.00 | 0.00 | 41 | 1021.2 |
| 20260503171937 | 78 | 204 | 9.0 | 11.0 | 0.00 | 0.00 | 0.00 | 41 | 1021.5 |
| 20260503171433 | 77 | 232 | 6.0 | 11.0 | 0.00 | 0.00 | 0.00 | 41 | 1021.6 |
| 20260503170931 | 77 | 255 | 8.0 | 14.0 | 0.00 | 0.00 | 0.00 | 41 | 1021.5 |
| 20260503170427 | 77 | 247 | 8.0 | 14.0 | 0.00 | 0.00 | 0.00 | 42 | 1021.8 |
| 20260503150820 | 72 | 239 | 6.0 | 10.0 | 0.00 | 0.00 | 0.00 | 48 | 1022.2 |
| 20260503150315 | 71 | 263 | 6.0 | 13.0 | 0.00 | 0.00 | 0.00 | 48 | 1022.2 |
| 20260503140240 | 68 | 210 | 6.0 | 9.0 | 0.00 | 0.00 | 0.00 | 51 | 1022.1 |
| 20260503131209 | 65 | 239 | 3.0 | 5.0 | 0.00 | 0.00 | 0.00 | 56 | 1021.8 |
| 20260503130707 | 65 | 312 | 2.0 | 6.0 | 0.00 | 0.00 | 0.00 | 56 | 1021.7 |
| 20260503130204 | 65 | 254 | 3.0 | 5.0 | 0.00 | 0.00 | 0.00 | 57 | 1021.8 |
| 20260503120130 | 62 | 275 | 1.0 | 2.0 | 0.00 | 0.00 | 0.00 | 63 | 1021.2 |
| 20260503110557 | 62 | 250 | 4.0 | 6.0 | 0.00 | 0.00 | 0.00 | 59 | 1020.8 |
| 20260503090444 | 63 | 255 | 3.0 | 7.0 | 0.00 | 0.00 | 0.00 | 56 | 1020.6 |
| 20260503081411 | 63 | 256 | 3.0 | 3.0 | 0.00 | 0.00 | 0.00 | 55 | 1020.5 |
| 20260503080908 | 63 | 259 | 3.0 | 5.0 | 0.00 | 0.00 | 0.00 | 54 | 1020.6 |
| 20260503080404 | 63 | 242 | 4.0 | 6.0 | 0.00 | 0.00 | 0.00 | 54 | 1020.6 |
| 20260503072841 | 63 | 292 | 2.0 | 3.0 | 0.00 | 0.00 | 0.00 | 55 | 1020.8 |
| 20260503072338 | 63 | 201 | 2.0 | 5.0 | 0.00 | 0.00 | 0.00 | 55 | 1020.8 |
| 20260503071834 | 63 | 18 | 0.0 | 1.0 | 0.00 | 0.00 | 0.00 | 55 | 1021.0 |
| 20260503071331 | 63 | 342 | 1.0 | 2.0 | 0.00 | 0.00 | 0.00 | 55 | 1020.7 |
| 20260503070827 | 63 | 316 | 1.0 | 2.0 | 0.00 | 0.00 | 0.00 | 55 | 1021.0 |
| 20260503070326 | 64 | 231 | 2.0 | 3.0 | 0.00 | 0.00 | 0.00 | 55 | 1020.9 |
| 20260503060251 | 64 | 306 | 1.0 | 3.0 | 0.00 | 0.00 | 0.00 | 56 | 1020.9 |
| 20260503054738 | 64 | 116 | 2.0 | 2.0 | 0.00 | 0.00 | 0.00 | 57 | 1020.8 |
| 20260503054235 | 63 | 345 | 1.0 | 2.0 | 0.00 | 0.00 | 0.00 | 58 | 1020.7 |
| 20260503053732 | 63 | 28 | 0.0 | 1.0 | 0.00 | 0.00 | 0.00 | 59 | 1020.6 |
| 20260503053231 | 63 | 29 | 1.0 | 1.0 | 0.00 | 0.00 | 0.00 | 58 | 1020.7 |
| 20260503052727 | 63 | 51 | 2.0 | 2.0 | 0.00 | 0.00 | 0.00 | 58 | 1020.8 |
| 20260503052224 | 63 | 24 | 0.0 | 1.0 | 0.00 | 0.00 | 0.00 | 59 | 1020.7 |
| 20260503051719 | 64 | 34 | 1.0 | 2.0 | 0.00 | 0.00 | 0.00 | 58 | 1020.7 |
| 20260503051217 | 64 | 46 | 2.0 | 2.0 | 0.00 | 0.00 | 0.00 | 56 | 1020.7 |
| 20260503050713 | 64 | 36 | 1.0 | 2.0 | 0.00 | 0.00 | 0.00 | 55 | 1020.4 |
| 20260503050210 | 65 | 29 | 1.0 | 2.0 | 0.00 | 0.00 | 0.00 | 55 | 1020.5 |
| 20260503045707 | 64 | 17 | 0.0 | 1.0 | 0.00 | 0.00 | 0.00 | 55 | 1020.4 |
| 20260503045205 | 65 | 29 | 0.0 | 2.0 | 0.00 | 0.00 | 0.00 | 54 | 1020.5 |
| 20260503044701 | 65 | 27 | 2.0 | 2.0 | 0.00 | 0.00 | 0.00 | 54 | 1020.7 |
| 20260503044158 | 66 | 356 | 0.0 | 1.0 | 0.00 | 0.00 | 0.00 | 53 | 1020.7 |
| 20260503043655 | 66 | 297 | 2.0 | 3.0 | 0.00 | 0.00 | 0.00 | 52 | 1020.5 |
| 20260503043153 | 65 | 316 | 1.0 | 2.0 | 0.00 | 0.00 | 0.00 | 54 | 1020.5 |
| 20260503042648 | 65 | 18 | 1.0 | 1.0 | 0.00 | 0.00 | 0.00 | 53 | 1020.5 |
| 20260503042144 | 65 | 43 | 1.0 | 2.0 | 0.00 | 0.00 | 0.00 | 53 | 1020.6 |
| 20260503041635 | 66 | 29 | 0.0 | 1.0 | 0.00 | 0.00 | 0.00 | 52 | 1020.4 |
| 20260503041133 | 66 | 99 | 3.0 | 3.0 | 0.00 | 0.00 | 0.00 | 51 | 1020.5 |
| 20260503040630 | 66 | 268 | 2.0 | 3.0 | 0.00 | 0.00 | 0.00 | 51 | 1020.5 |
| 20260503040128 | 66 | 273 | 1.0 | 3.0 | 0.00 | 0.00 | 0.00 | 52 | 1020.4 |
| 20260503035624 | 66 | 20 | 0.0 | 1.0 | 0.00 | 0.00 | 0.00 | 53 | 1020.8 |
| 20260503035122 | 66 | 13 | 0.0 | 1.0 | 0.00 | 0.00 | 0.00 | 53 | 1020.6 |
| 20260503034619 | 66 | 26 | 1.0 | 2.0 | 0.00 | 0.00 | 0.00 | 53 | 1020.6 |
| 20260503034116 | 67 | 327 | 1.0 | 3.0 | 0.00 | 0.00 | 0.00 | 52 | 1020.5 |
| 20260503033613 | 67 | 232 | 3.0 | 5.0 | 0.00 | 0.00 | 0.00 | 51 | 1020.5 |
| 20260503033111 | 67 | 289 | 2.0 | 2.0 | 0.00 | 0.00 | 0.00 | 51 | 1020.6 |
| 20260503032609 | 67 | 320 | 1.0 | 2.0 | 0.00 | 0.00 | 0.00 | 51 | 1020.5 |
| 20260503032107 | 67 | 37 | 0.0 | 1.0 | 0.00 | 0.00 | 0.00 | 51 | 1020.6 |
| 20260503031604 | 67 | 55 | 2.0 | 3.0 | 0.00 | 0.00 | 0.00 | 51 | 1020.4 |
| 20260503031102 | 68 | 65 | 1.0 | 2.0 | 0.00 | 0.00 | 0.00 | 51 | 1020.3 |
| 20260503030557 | 68 | 29 | 0.0 | 1.0 | 0.00 | 0.00 | 0.00 | 50 | 1020.0 |
| 20260503030055 | 68 | 36 | 0.0 | 1.0 | 0.00 | 0.00 | 0.00 | 50 | 1020.3 |
| 20260503025551 | 68 | 66 | 2.0 | 2.0 | 0.00 | 0.00 | 0.00 | 49 | 1020.1 |
| 20260503025049 | 69 | 32 | 1.0 | 1.0 | 0.00 | 0.00 | 0.00 | 49 | 1020.2 |
| 20260503024545 | 69 | 33 | 1.0 | 2.0 | 0.00 | 0.00 | 0.00 | 48 | 1020.2 |
| 20260503024043 | 69 | 26 | 2.0 | 2.0 | 0.00 | 0.00 | 0.00 | 48 | 1020.1 |
| 20260503023539 | 69 | 35 | 1.0 | 2.0 | 0.00 | 0.00 | 0.00 | 47 | 1020.1 |
| 20260503023037 | 69 | 26 | 0.0 | 2.0 | 0.00 | 0.00 | 0.00 | 46 | 1020.0 |
| 20260503022532 | 69 | 32 | 1.0 | 2.0 | 0.00 | 0.00 | 0.00 | 45 | 1020.1 |
| 20260503022027 | 70 | 47 | 2.0 | 2.0 | 0.00 | 0.00 | 0.00 | 44 | 1019.9 |
| 20260503021524 | 70 | 41 | 1.0 | 2.0 | 0.00 | 0.00 | 0.00 | 43 | 1019.8 |
| 20260503021021 | 71 | 48 | 2.0 | 5.0 | 0.00 | 0.00 | 0.00 | 42 | 1020.0 |
| 20260503020518 | 72 | 77 | 3.0 | 3.0 | 0.00 | 0.00 | 0.00 | 38 | 1019.7 |
| 20260503020015 | 72 | 12 | 1.0 | 1.0 | 0.00 | 0.00 | 0.00 | 38 | 1019.7 |
| 20260503015512 | 73 | 44 | 1.0 | 2.0 | 0.00 | 0.00 | 0.00 | 37 | 1019.8 |
| 20260503015009 | 73 | 59 | 2.0 | 2.0 | 0.00 | 0.00 | 0.00 | 36 | 1019.5 |
| 20260503014505 | 73 | 1 | 1.0 | 2.0 | 0.00 | 0.00 | 0.00 | 37 | 1019.5 |
| 20260503014003 | 73 | 40 | 1.0 | 2.0 | 0.00 | 0.00 | 0.00 | 35 | 1019.5 |
| 20260503013500 | 73 | 346 | 0.0 | 1.0 | 0.00 | 0.00 | 0.00 | 36 | 1019.6 |
| 20260503012957 | 73 | 349 | 0.0 | 1.0 | 0.00 | 0.00 | 0.00 | 35 | 1019.4 |
| 20260503012455 | 73 | 5 | 1.0 | 1.0 | 0.00 | 0.00 | 0.00 | 35 | 1019.5 |